This is the latest recevied weather packets stored in our database for station/object W4KAB. If no packets are shown the sender has not sent any weather packets the latest 10 day(s).
| Time | Temp. | Humidity | Pressure | Rain* | Wind** | Luminosity | Snow |
|---|---|---|---|---|---|---|---|
| 1778158518 | 17.22° C | 99% | 1010.8 hPa | 0 mm | - | 47 W/m² | - |
| 1778158216 | 17.22° C | 99% | 1011.4 hPa | 0 mm | - | 49 W/m² | - |
| 1778157912 | 17.22° C | 99% | 1011.7 hPa | 0 mm | - | 58 W/m² | - |
| 1778157610 | 16.67° C | 99% | 1011.7 hPa | 0 mm | - | 47 W/m² | - |
| 1778157308 | 16.67° C | 99% | 1012 hPa | 0 mm | - | 37 W/m² | - |
| 1778157004 | 16.67° C | 99% | 1012.1 hPa | 1.78 mm | - | 44 W/m² | - |
| 1778156699 | 16.67° C | 99% | 1011.9 hPa | 1.78 mm | - | 16 W/m² | - |
| 1778156396 | 16.67° C | 99% | 1012.1 hPa | 1.27 mm | - | 10 W/m² | - |
| 1778156091 | 16.67° C | 99% | 1012.1 hPa | 1.27 mm | - | 9 W/m² | - |
| 1778155788 | 16.67° C | 99% | 1012.6 hPa | 0 mm | - | 7 W/m² | - |
| 1778155484 | 16.67° C | 99% | 1012.8 hPa | 1.78 mm | - | 6 W/m² | - |
| 1778155181 | 16.67° C | 99% | 1012.8 hPa | 1.78 mm | - | 6 W/m² | - |
| 1778154876 | 16.67° C | 99% | 1012.6 hPa | 0 mm | - | 6 W/m² | - |
| 1778154573 | 16.67° C | 99% | 1012.6 hPa | 0 mm | - | 7 W/m² | - |
| 1778154269 | 16.67° C | 99% | 1012.2 hPa | 0 mm | - | 10 W/m² | - |
| 1778153967 | 16.67° C | 99% | 1012.1 hPa | 1.27 mm | - | 9 W/m² | - |
| 1778153663 | 16.67° C | 99% | 1012 hPa | 1.27 mm | - | 5 W/m² | - |
| 1778153361 | 16.67° C | 99% | 1011.8 hPa | 1.78 mm | - | 5 W/m² | - |
| 1778153058 | 16.67° C | 99% | 1011.8 hPa | 3.05 mm | - | 2 W/m² | - |
| 1778152755 | 16.67° C | 99% | 1012.3 hPa | 1.27 mm | - | 1 W/m² | - |
| 1778152453 | 16.67° C | 99% | 1012.1 hPa | 0 mm | - | 0 W/m² | - |
| 1778152148 | 16.67° C | 99% | 1012.3 hPa | 0 mm | - | 1 W/m² | - |
| 1778151844 | 16.11° C | 99% | 1011.9 hPa | 0 mm | - | 0 W/m² | - |
| 1778151542 | 16.11° C | 99% | 1011.8 hPa | 0 mm | - | 0 W/m² | - |
| 1778151238 | 16.67° C | 99% | 1011.4 hPa | 0 mm | - | 0 W/m² | - |
* Rain latest hour (hover to see other rain measurements)
** Current wind speed in m/s (hover to see current wind gust speed)